Wind_Speed
46 46 45 45 46 45 47 46 45 45 44 44 44 44 43 43 43 43 42 41 42 42 41 41 42 41 42 43 44 43 43 44 44 44 44 44 44 45 45 46 46 46 47
45 45 45 45 46 46 46 46 45 45 46 45 44 43 42 43 43 43 43 43 43 43 42 42 42 42 42 42 43 43 43 43 44 44 44 44 44 44 45 45 46 46 46
42 44 45 45 45 46 47 46 45 46 46 45 45 44 44 43 44 44 43 43 43 43 43 42 42 42 43 44 44 43 43 43 44 45 44 44 44 45 45 45 46 45 46
42 43 44 45 45 46 47 46 45 45 45 44 44 44 44 44 44 44 43 43 43 42 43 43 43 44 43 43 43 43 44 44 45 45 45 45 45 45 45 45 45 45 45
41 42 43 43 44 45 45 45 45 45 44 43 43 44 44 44 44 44 43 43 42 43 43 44 44 43 42 42 43 44 45 46 46 45 45 45 45 45 45 45 45 44 44
41 42 42 42 42 43 43 43 43 43 42 43 44 44 45 45 44 43 43 42 42 43 43 43 43 42 43 43 43 44 45 46 46 45 45 45 45 45 44 44 45 45 44
40 40 40 40 41 42 42 42 42 42 41 42 43 44 44 43 44 43 43 43 43 44 43 42 42 42 42 42 42 43 44 44 44 44 44 44 44 45 44 44 44 44 45
40 39 39 39 40 42 42 42 42 42 42 41 42 44 44 43 43 42 43 43 43 43 42 42 41 41 41 41 41 42 42 43 43 43 43 43 44 44 43 43 43 44 44
39 39 40 40 40 41 42 42 42 41 41 42 42 42 42 42 42 42 42 42 42 41 41 41 41 41 41 41 42 42 41 41 41 42 42 42 41 42 42 43 43 43 43
38 39 39 39 39 40 40 40 40 40 40 40 40 39 40 40 40 40 40 40 40 41 41 41 41 41 41 41 41 41 40 39 40 41 41 41 40 41 42 43 43 43 43
38 40 39 39 38 38 39 38 39 39 38 38 37 37 37 38 38 38 38 39 39 40 40 41 41 40 40 41 40 40 39 39 40 40 40 40 40 40 41 41 42 42 42
38 38 38 38 37 38 38 37 37 37 37 37 37 37 37 37 37 38 38 38 39 39 40 40 40 40 40 40 40 40 40 39 39 38 39 39 39 39 39 40 40 40 39
35 36 36 37 37 37 36 36 36 35 35 35 36 36 37 37 36 36 36 37 37 38 38 39 39 39 39 40 39 39 39 38 37 37 37 37 37 38 38 37 37 37 37
34 35 36 35 35 35 36 35 35 35 35 35 35 35 36 36 36 36 36 37 37 37 37 37 38 38 39 38 38 38 37 37 36 36 36 36 36 36 36 36 35 35 33
33 33 33 33 34 34 34 35 35 36 35 36 36 36 35 35 35 36 36 36 36 36 36 36 36 37 36 36 36 35 35 35 34 34 35 35 34 34 34 34 33 33 32
33 32 31 32 32 33 33 34 35 35 35 35 35 35 35 35 35 35 35 35 35 35 35 35 34 34 34 33 33 33 32 32 32 32 32 32 32 31 31 31 30 29 28
31 31 31 31 31 31 31 32 33 34 34 34 34 34 34 33 33 33 33 33 33 33 33 33 33 32 31 31 31 30 30 30 30 30 29 29 29 28 28 27 27 26 24
29 30 30 30 30 30 31 31 32 32 33 34 34 33 32 32 32 32 32 31 31 31 31 31 31 30 29 29 28 27 27 27 27 27 27 26 25 25 25 25 24 23 22
28 28 29 29 29 30 31 31 31 32 32 32 32 32 31 31 30 30 30 30 30 30 30 29 29 28 27 27 26 25 25 25 25 24 24 24 24 24 24 23 22 22 21
27 28 28 28 29 29 29 30 30 30 31 31 30 30 29 29 29 29 29 30 29 28 27 27 26 26 26 25 24 24 24 24 24 23 23 23 23 23 22 21 22 21 20
27 27 27 27 28 29 29 30 30 29 29 29 29 28 28 28 28 27 27 27 27 26 25 25 25 24 24 24 23 23 23 23 23 22 22 22 22 22 21 21 20 20 19
26 26 27 27 27 27 28 28 27 27 27 28 27 26 26 26 26 26 26 25 25 25 24 24 24 23 23 23 23 23 23 22 21 21 21 21 21 20 19 19 18 17 16
25 25 25 26 26 26 25 25 25 24 24 24 24 24 24 23 23 24 24 24 23 23 22 22 21 21 21 21 21 21 21 20 20 19 20 20 19 18 17 16 15 15 14
23 23 23 23 23 24 24 23 22 22 22 22 21 22 22 22 22 22 22 22 21 20 19 19 19 19 19 19 19 18 18 18 18 18 18 18 17 16 15 14 13 13 12
22 22 21 21 21 21 21 21 21 21 21 21 21 21 21 21 21 21 20 19 18 17 17 17 17 17 17 17 16 16 16 16 16 16 16 15 15 14 13 12 12 11 11
20 20 20 20 19 20 20 20 21 21 21 21 20 20 20 19 19 19 17 16 15 15 15 15 15 15 15 14 14 14 14 14 14 14 14 13 13 12 11 10 10 10 9
Wind_Direction
250 251 253 255 256 257 257 258 259 261 263 264 266 267 270 271 272 274 275 276 278 279 280 281 282 284 285 285 285 286 289 289 288 290 292 293 291 290 291 291 291 291 291
249 250 253 254 255 256 257 258 259 261 263 264 266 268 270 271 273 274 276 277 279 280 280 282 282 283 285 286 286 287 288 290 289 290 292 292 291 291 291 291 291 291 291
250 252 253 254 255 256 256 258 261 261 262 264 265 267 270 271 273 275 277 280 279 279 280 282 283 284 286 286 285 286 288 290 290 291 291 291 292 293 292 292 291 291 291
251 253 255 255 255 256 257 258 260 261 263 265 266 268 269 271 273 275 276 278 279 280 281 283 284 285 286 286 286 286 288 290 291 291 291 292 292 293 292 291 291 291 291
254 256 257 256 256 257 257 257 259 261 263 266 267 268 269 271 273 274 276 277 278 279 281 283 284 286 286 287 287 287 288 290 291 291 292 292 292 293 292 291 291 291 291
253 256 257 257 257 257 258 260 260 261 263 266 268 270 271 273 273 274 275 276 278 280 281 283 284 285 286 288 288 288 289 289 290 290 292 293 292 292 292 292 291 290 290
254 255 257 258 259 259 260 260 260 261 264 266 268 270 272 272 273 274 275 276 278 281 282 283 285 286 287 288 289 288 289 290 291 291 292 293 292 292 293 293 292 292 291
255 256 257 259 260 261 261 261 261 263 266 268 270 270 271 273 273 273 275 277 279 281 282 283 285 286 287 287 288 288 290 290 290 291 292 293 293 293 293 293 293 293 294
256 256 257 259 260 261 262 262 263 264 267 268 269 270 270 271 272 274 276 277 279 280 281 282 283 285 286 287 287 287 288 289 290 291 293 294 294 292 293 294 295 295 295
256 256 258 259 260 261 262 262 263 265 266 268 269 270 270 271 272 272 275 277 278 278 278 280 281 283 284 285 286 287 287 288 290 292 292 293 294 294 295 295 295 296 296
257 257 259 260 261 261 261 262 264 265 267 268 269 270 271 272 272 272 273 275 276 278 278 280 280 281 283 284 285 287 288 289 290 290 291 292 295 296 296 296 296 297 298
259 259 259 260 260 262 262 262 264 265 267 269 269 270 273 272 272 272 273 274 276 279 279 280 281 281 283 284 285 287 288 289 289 290 291 292 295 296 296 296 297 298 299
259 258 259 260 260 260 261 262 263 264 267 269 270 270 271 272 271 272 274 275 278 280 280 280 281 283 284 285 286 287 288 289 289 291 293 294 295 295 296 297 298 299 300
259 260 260 260 260 261 262 262 263 265 267 269 269 270 270 271 272 273 276 278 279 280 281 281 282 283 284 285 286 286 286 288 289 291 293 294 294 294 295 297 298 299 300
260 261 260 260 261 262 262 262 263 265 267 269 270 271 271 272 273 274 277 278 279 279 282 283 283 283 284 285 286 285 286 288 290 292 293 293 294 295 297 298 298 298 299
261 261 261 262 262 262 262 263 264 266 267 269 272 272 273 273 273 274 275 277 278 279 281 283 284 283 284 285 286 287 288 289 290 292 294 295 295 297 298 299 300 301 301
262 262 263 263 264 264 265 264 264 265 267 270 272 273 273 273 272 273 274 275 277 279 280 282 283 283 285 285 286 287 287 288 290 292 295 296 297 298 299 300 302 303 303
263 263 263 263 265 266 266 265 266 267 267 269 271 273 272 271 273 273 273 275 278 280 281 281 281 282 284 286 286 285 286 287 290 293 295 296 298 300 301 303 303 304 304
264 264 264 263 265 267 267 267 268 268 269 270 271 272 271 272 273 273 273 276 279 281 281 280 279 280 283 285 284 285 286 288 291 293 295 297 299 300 302 303 304 305 305
264 264 265 266 266 267 268 270 270 269 269 270 270 269 270 271 272 273 275 277 278 279 279 277 276 279 281 282 283 284 286 288 290 291 294 297 299 300 301 302 303 303 303
265 265 266 269 270 269 270 271 270 268 267 267 267 267 269 270 272 273 276 277 277 277 277 275 276 277 278 278 281 284 286 286 287 290 294 297 299 299 300 301 302 302 302
266 267 268 270 271 271 271 270 269 267 266 266 265 265 267 270 272 272 275 276 276 276 275 275 275 275 277 278 280 282 283 283 285 288 293 297 298 297 299 301 302 302 301
267 267 268 268 269 270 270 269 268 268 267 266 264 265 267 270 272 273 274 275 276 275 273 272 273 276 279 280 281 283 283 282 284 288 294 297 297 296 297 299 301 302 302
266 267 268 268 269 269 267 265 265 266 266 265 264 266 268 270 271 272 272 273 274 273 270 270 272 275 278 281 282 283 283 283 285 289 292 293 293 294 295 297 298 301 303
264 265 267 268 267 267 265 263 262 263 265 265 266 268 269 270 270 272 272 271 269 268 267 267 269 273 278 280 281 282 284 285 287 290 292 291 291 293 294 294 297 300 302
264 265 265 266 266 266 265 263 262 263 264 265 267 268 268 268 268 269 268 267 265 266 267 268 269 273 279 280 280 282 285 288 290 291 290 288 289 291 294 295 298 300 303
Height
5683 5686 5688 5690 5691 5693 5694 5696 5697 5698 5699 5700 5700 5701 5701 5701 5700 5699 5699 5698 5697 5695 5694 5692 5691 5689 5687 5685 5683 5681 5679 5677 5675 5673 5669 5665 5661 5658 5655 5651 5647 5644 5640
5672 5674 5676 5678 5680 5682 5684 5685 5686 5687 5688 5689 5689 5690 5690 5690 5690 5689 5688 5687 5686 5685 5683 5682 5681 5679 5677 5675 5673 5670 5668 5665 5663 5661 5658 5654 5650 5647 5643 5639 5636 5632 5627
5662 5664 5666 5668 5669 5671 5673 5674 5675 5676 5677 5678 5678 5679 5679 5679 5679 5678 5677 5677 5675 5674 5673 5671 5670 5668 5666 5664 5662 5660 5657 5654 5651 5649 5646 5643 5639 5635 5632 5628 5624 5620 5615
5651 5653 5655 5657 5659 5660 5662 5663 5664 5666 5666 5667 5667 5668 5668 5668 5668 5667 5666 5666 5664 5663 5662 5661 5659 5657 5655 5653 5651 5648 5646 5643 5640 5637 5634 5631 5627 5623 5620 5616 5613 5608 5604
5641 5643 5644 5646 5648 5650 5651 5652 5653 5654 5655 5655 5656 5656 5657 5656 5656 5656 5655 5654 5653 5652 5651 5649 5648 5646 5643 5641 5639 5637 5634 5631 5628 5625 5622 5618 5615 5611 5607 5604 5600 5597 5593
5630 5632 5634 5636 5637 5639 5640 5641 5642 5643 5643 5644 5645 5645 5645 5645 5645 5644 5643 5643 5642 5641 5639 5638 5636 5634 5633 5630 5628 5625 5622 5619 5616 5613 5610 5606 5603 5599 5595 5591 5587 5584 5582
5619 5621 5623 5625 5626 5627 5628 5630 5631 5632 5632 5633 5633 5633 5634 5633 5633 5632 5632 5631 5631 5629 5628 5626 5625 5623 5621 5619 5616 5614 5611 5607 5604 5601 5598 5594 5591 5587 5583 5580 5576 5571 5567
5609 5610 5612 5614 5615 5616 5617 5619 5619 5620 5621 5622 5622 5622 5622 5622 5621 5621 5620 5619 5619 5618 5616 5615 5613 5612 5610 5608 5605 5603 5600 5596 5593 5590 5586 5583 5578 5574 5571 5567 5563 5560 5555
5598 5599 5601 5602 5604 5605 5606 5607 5608 5609 5610 5610 5610 5610 5610 5611 5610 5609 5609 5608 5607 5606 5605 5603 5602 5600 5599 5596 5594 5592 5589 5585 5581 5578 5574 5571 5567 5563 5559 5555 5552 5548 5545
5587 5589 5590 5591 5593 5594 5595 5596 5597 5598 5598 5599 5599 5599 5599 5599 5599 5598 5598 5597 5596 5595 5594 5593 5591 5589 5587 5585 5582 5580 5577 5574 5571 5567 5564 5560 5556 5552 5548 5544 5540 5536 5532
5577 5578 5579 5580 5581 5583 5584 5585 5586 5587 5587 5588 5588 5588 5588 5588 5587 5587 5586 5586 5585 5583 5583 5581 5580 5578 5576 5574 5571 5568 5566 5563 5560 5557 5554 5550 5546 5542 5538 5534 5529 5525 5521
5566 5567 5568 5569 5571 5572 5573 5574 5575 5576 5576 5577 5577 5577 5577 5577 5576 5576 5575 5574 5573 5572 5571 5570 5568 5566 5564 5562 5560 5557 5555 5552 5549 5546 5544 5540 5537 5533 5528 5524 5519 5515 5510
5556 5557 5558 5559 5560 5561 5563 5564 5565 5565 5566 5566 5566 5566 5566 5566 5565 5565 5564 5563 5562 5561 5560 5558 5556 5555 5553 5551 5548 5546 5544 5541 5539 5536 5533 5530 5527 5523 5519 5515 5510 5506 5501
5546 5547 5548 5549 5549 5550 5552 5553 5554 5555 5556 5556 5556 5556 5555 5555 5555 5554 5553 5553 5552 5550 5549 5547 5545 5544 5542 5540 5538 5536 5533 5531 5529 5526 5524 5521 5517 5514 5510 5506 5502 5498 5494
5536 5537 5537 5538 5539 5541 5542 5543 5544 5545 5546 5546 5546 5545 5545 5545 5544 5543 5543 5542 5541 5540 5538 5536 5535 5534 5532 5530 5528 5526 5524 5522 5520 5517 5514 5512 5508 5505 5501 5497 5493 5490 5486
5526 5527 5528 5529 5530 5531 5532 5532 5533 5534 5535 5535 5535 5535 5534 5534 5533 5533 5532 5531 5530 5529 5528 5526 5525 5524 5522 5521 5519 5517 5515 5513 5511 5509 5506 5503 5500 5496 5493 5489 5486 5483 5480
5517 5518 5518 5519 5520 5521 5522 5522 5523 5524 5524 5525 5525 5524 5524 5523 5523 5522 5522 5521 5520 5519 5518 5517 5516 5515 5513 5512 5510 5508 5506 5505 5503 5500 5498 5495 5492 5489 5486 5483 5480 5477 5473
5508 5509 5510 5510 5511 5512 5512 5513 5513 5514 5514 5514 5515 5514 5514 5513 5513 5513 5512 5512 5511 5510 5509 5508 5507 5506 5505 5503 5502 5500 5498 5497 5495 5493 5491 5488 5485 5483 5480 5477 5474 5471 5468
5500 5501 5501 5502 5502 5503 5503 5503 5504 5504 5504 5504 5504 5505 5505 5504 5504 5504 5503 5503 5502 5501 5500 5499 5499 5498 5497 5496 5494 5493 5491 5490 5488 5486 5484 5482 5479 5477 5474 5472 5469 5466 5463
5492 5492 5493 5493 5494 5494 5494 5494 5494 5494 5495 5495 5495 5496 5496 5496 5495 5495 5495 5494 5494 5493 5492 5491 5491 5490 5489 5488 5487 5486 5485 5484 5482 5480 5478 5476 5474 5471 5469 5466 5464 5461 5459
5484 5484 5485 5485 5485 5485 5485 5485 5485 5486 5486 5486 5487 5487 5487 5487 5487 5487 5487 5486 5486 5485 5484 5484 5483 5483 5482 5481 5481 5480 5479 5477 5476 5474 5473 5471 5468 5466 5464 5461 5459 5456 5454
5476 5477 5477 5477 5477 5476 5476 5476 5477 5477 5477 5478 5478 5479 5479 5479 5479 5479 5479 5478 5477 5477 5477 5477 5476 5476 5475 5475 5474 5473 5472 5471 5470 5469 5467 5465 5463 5461 5459 5457 5454 5452 5450
5469 5468 5468 5468 5468 5468 5468 5468 5469 5469 5469 5470 5470 5471 5471 5472 5472 5471 5471 5471 5470 5470 5470 5470 5470 5469 5469 5468 5468 5467 5466 5465 5464 5463 5462 5460 5458 5456 5454 5453 5451 5449 5447
5461 5461 5461 5460 5460 5460 5460 5461 5461 5462 5462 5463 5464 5464 5465 5465 5465 5464 5464 5464 5463 5463 5463 5463 5463 5463 5463 5462 5462 5461 5460 5459 5458 5457 5456 5455 5453 5452 5450 5449 5447 5445 5444
5453 5453 5453 5453 5453 5453 5453 5454 5455 5455 5456 5457 5457 5458 5458 5458 5458 5458 5458 5457 5457 5457 5457 5458 5458 5458 5458 5457 5456 5456 5455 5454 5453 5452 5451 5450 5449 5448 5446 5445 5444 5442 5441
5447 5447 5447 5446 5446 5447 5447 5447 5448 5449 5449 5450 5451 5451 5452 5452 5452 5453 5453 5452 5452 5452 5453 5453 5453 5453 5453 5452 5452 5451 5451 5450 5449 5448 5447 5446 5445 5444 5443 5442 5441 5440 5439